sat.trackr.live / text

‹ back to catalog

USA 342

NORAD 55263 · 2023-008A

PAYLOAD ACTIVE UNKNOWN

§ Identity

Operator
Country
US
Launch date
2023-01-15
Launch site
AFETR
Launch vehicle
Mass (kg)
RCS (m²)

Purposes: comms

External: N2YO · Heavens-Above · Gunter

§ Orbital elements

Epoch: 2026-05-23T05:39:26.844768Z

Period
1,436.09 min
Inclination
0.0036°
Eccentricity
0.0000178
Mean motion
1.00272469 rev/d
Perigee alt
35,785.7 km
Apogee alt
35,787.2 km
Semi-major
42,164.5 km
B*
0.0000e+0
RAAN
320.7234°
Arg perigee
81.6333°
Mean anomaly
307.1771°
Rev number
1,226

§ Raw data

USA 3421 55263U 23008A   26143.23572737  .00000131  00000+0  00000+0 0  99992 55263   0.0036 320.7234 0000178  81.6333 307.1771  1.00272469 12261

JSON: /api/v1/satellites/55263 · /tle

For live sub-satellite position, see the globe view (requires WebGL).

§ Visibility from observer

Set your observer location to see the next 7 days of passes ≥ 10°. The values pass through the URL so the page stays shareable.

No JS? Fill the form by hand. The geolocation button needs JavaScript.